Тазларово

Россия / Республика Башкортостан     52°08′26″N   56°43′17″E
темп.,
°C
ветер,
м/с
пор.,
м/с
влажн.,
%
обл.,
%
осадки,
мм/ч
давл.,
гПа
погр.,
м
10 мая, пн
пн1023:00+15всв225717 0.0 101726
02:00+11всв22655 0.0 101714
05:00+10всв22623 0.0 101913
08:00+14в14572 0.0 1019180
11:00+20вюв23433 0.0 10191187
14:00+22с253345 0.0 10192596
17:00+21в584468 0.0 1019484
20:00+17в35555 0.0 102080
11 мая, вт
вт1123:00+13в33565 0.0 102228
02:00+11в22703 0.0 102321
05:00+9в22843 0.0 102419
08:00+14вюв26675 0.0 1026300
11:00+18вюв45495 0.0 10261422
14:00+21юв35405 0.0 10262199
17:00+22вюв353726 0.0 10262377
20:00+17вюв346183 0.0 102679
12 мая, ср
ср1223:00+13в225243 0.0 102713
02:00+11всв225026 0.0 102811
05:00+9в225140 0.0 102910
08:00+13в1256100 0.0 1029114
11:00+18юв454496 0.0 10301102
14:00+20юв343715 0.0 10291568
17:00+21юв343697 0.0 10281609
20:00+17юв1156100 0.0 102811
13 мая, чт
чт1323:00+13в2152100 0.0 102910
02:00+12всв225167 0.0 102911
05:00+10в215489 0.0 102910
08:00+15в11530 0.0 102996
11:00+21ю22410 0.0 1029797
14:00+23юз22350 0.0 10281694
17:00+23зюз01350 0.0 10271624
20:00+19зсз01510 0.0 102711
14 мая, пт
пт1423:00+15в11540 0.0 102711
02:00+13всв11600 0.0 102810
05:00+12в11640 0.0 102810
08:00+17в11570 0.0 102980
11:00+23ю12410 0.0 1028643
14:00+24юз22330 0.0 10271802
17:00+25юз11325 0.0 10271857
20:00+21вюв11485 0.0 102611